Regional Weather Roundup
Issued by NWS

Home | Current Version | Previous Version | Text Only | Print | Product List | Glossary Off
Versions: 1 2 3 4 5 6 7 8 9 10 11 12 13 14 15 16 17 18 19 20 21 22 23 24 25 26 27 28 29 30 31 32 33 34 35 36 37 38 39 40 41 42 43 44 45 46 47 48 49 50

000
ASUS43 KFSD 280910
RWRSD

WEATHER ROUNDUP FOR SOUTH DAKOTA
NATIONAL WEATHER SERVICE SIOUX FALLS SD
400 AM CDT SUN MAY 28 2017

NOTE: "FAIR" INDICATES FEW OR NO CLOUDS BELOW 12,000 FEET WITH NO
SIGNIFICANT WEATHER AND/OR OBSTRUCTIONS TO VISIBILITY.


SDZ001>005-009-010-012>017-281000-
NORTHWEST AND NORTH CENTRAL SOUTH DAKOTA

CITY           SKY/WX    TMP DP  RH WIND       PRES   REMARKS
BUFFALO          N/A     49  42  77 NW14      29.94R
FAITH            N/A     52  45  77 W12       29.94S
MOBRIDGE       PTCLDY    49  42  77 NW9       29.85S
$$

SDZ012>016-024>037-041>051-057-063-072>074-281000-
SOUTHWEST AND SOUTH CENTRAL SOUTH DAKOTA

CITY           SKY/WX    TMP DP  RH WIND       PRES   REMARKS
RAPID CTY ARPT PTCLDY    57  39  51 W13       30.01F
PIERRE         CLEAR     56  43  61 W9        29.89S
CUSTER         CLEAR     49  33  54 NW6       30.13F
ELLSWORTH AFB  PTCLDY    53  40  60 W10       30.01S
PHILIP         MOCLDY    51  43  74 W8        29.96F
PINE RIDGE     CLEAR     47  42  83 SW6       30.07S
SPEARFISH      MOCLDY    57  37  47 W9        30.06S
WINNER         FAIR      53  45  74 W10       29.93F
$$

SDZ004>011-016>023-039-040-281000-
NORTHEAST SOUTH DAKOTA

CITY           SKY/WX    TMP DP  RH WIND       PRES   REMARKS
ABERDEEN       CLEAR     47  42  83 NW3       29.84F
WATERTOWN      CLEAR     51  46  83 NW8       29.83S
BROOKINGS      CLEAR     51  47  86 W9        29.84S
SISSETON         N/A     51  46  83 NW7       29.80S
$$

SDZ017-020-022-023-036>040-048>070-281000-
SOUTHEAST SOUTH DAKOTA

CITY           SKY/WX    TMP DP  RH WIND       PRES   REMARKS
SIOUX FALLS    CLEAR     54  51  90 W9        29.84F
HURON          CLEAR     47  44  90 CALM      29.85F
CHAMBERLAIN    CLEAR     52  46  78 W8        29.91F
MITCHELL       CLEAR     53  46  77 W10       29.87F
YANKTON        PTCLDY    56  48  74 W13       29.87F
$$

ABBREVIATIONS USED IN REMARKS
   TC - TEMPERATURE IN CELSIUS
  WCI - WIND CHILL INDEX
   HX - HEAT INDEX
  VSB - VISIBILITY





USA.gov is the U.S. government's official web portal to all federal, state and local government web resources and services.